Temperature
12 12 12 12 12 11 11 11 11 11 11 11 11 11 11 11 11 11 11 11 12 11 11 11 11 11 11 12 12 12 12 12 12 12 12 12 12 12 12 12 12 12 12
11 11 11 11 11 11 11 11 11 11 11 11 11 11 11 11 11 11 11 11 11 11 11 11 11 11 11 11 11 11 11 11 11 11 12 12 12 12 12 12 12 12 12
11 11 11 10 10 10 10 10 10 10 10 10 10 10 10 10 10 10 10 10 10 10 10 10 10 10 10 10 10 10 11 11 11 11 11 11 11 11 12 12 12 12 12
10 10 10 10 10 10 10 10 10 10 10 10 10 10 10 10 10 10 10 10 10 10 10 9 9 9 9 9 9 9 10 10 10 10 10 11 11 11 11 11 11 11 11
10 10 10 10 9 9 9 9 9 9 9 9 9 9 9 10 10 9 9 9 9 9 9 9 9 9 9 9 9 9 9 9 9 10 10 10 10 10 11 11 11 11 11
9 9 9 9 9 9 9 9 9 9 8 8 8 9 9 9 9 9 8 8 8 8 8 8 8 8 8 8 8 8 8 8 9 9 9 9 9 10 10 10 10 10 10
9 9 9 9 9 8 8 8 8 8 8 8 8 8 8 8 8 8 8 8 8 8 8 8 8 8 8 8 8 8 8 8 8 8 8 9 9 9 9 10 10 10 10
9 9 8 8 8 8 8 7 7 7 7 7 6 6 6 7 7 7 7 7 7 7 7 7 7 7 7 7 7 7 7 7 7 8 8 8 8 8 8 9 9 9 9
8 8 8 8 7 7 7 7 7 6 6 6 5 5 5 5 5 6 6 6 6 6 6 6 6 6 6 7 7 7 7 7 7 7 7 7 7 8 8 8 8 8 9
8 8 7 7 7 7 7 7 6 6 6 5 5 5 4 4 4 4 5 5 5 6 6 6 6 6 6 6 6 6 6 6 6 6 6 6 7 7 7 7 8 8 8
7 7 7 7 7 7 6 6 6 6 5 5 4 4 4 4 3 3 3 4 5 5 5 5 5 5 5 5 5 5 5 5 6 6 6 6 6 6 7 7 7 7 7
7 7 7 6 6 6 6 6 5 5 5 4 4 4 3 3 3 3 3 3 3 4 4 4 4 4 4 5 5 5 5 5 5 5 5 5 5 6 6 6 6 7 7
6 6 6 6 6 6 6 5 5 5 4 4 4 4 3 3 3 3 2 2 2 3 3 4 4 4 4 4 4 4 4 4 4 4 4 5 5 5 5 5 6 6 6
6 6 6 6 6 5 5 5 5 4 4 4 3 3 3 3 3 2 2 2 2 2 2 3 3 3 3 3 3 3 3 3 4 4 4 4 4 4 5 5 5 5 6
6 6 6 5 5 5 5 5 4 4 4 3 3 3 3 3 2 2 2 2 1 1 2 2 2 3 3 3 3 3 3 3 3 3 3 4 4 4 4 4 5 5 5
5 5 5 5 5 5 5 4 4 4 3 3 3 3 2 2 2 2 2 1 1 1 1 1 2 2 2 2 2 2 2 2 3 3 3 3 4 4 4 4 4 4 5
5 5 5 5 5 5 4 4 4 3 3 3 2 2 2 2 2 1 1 1 1 1 1 1 1 1 1 1 2 2 2 2 2 3 3 3 3 4 4 4 4 4 4
5 5 4 4 4 4 4 4 3 3 2 2 2 2 2 1 1 1 1 1 1 0 0 0 1 1 1 1 1 1 2 2 2 2 2 3 3 3 4 4 4 4 4
4 4 4 4 4 4 3 3 2 2 2 2 2 1 1 1 1 1 0 0 0 0 0 -0 0 0 0 0 0 1 1 1 2 2 2 2 2 3 3 4 4 4 4
4 4 4 3 3 3 3 2 2 2 1 1 1 1 1 0 0 0 -0 -0 -0 -0 -0 -0 -0 -0 -0 -0 -0 0 0 1 1 1 2 2 2 3 3 3 3 3 4
4 3 3 3 3 2 2 1 1 1 1 1 1 1 0 0 -0 -0 -0 -0 -1 -1 -1 -1 -1 -1 -1 -1 -1 -0 -0 -0 0 1 1 1 2 2 2 3 3 3 3
3 3 3 2 2 2 1 1 1 1 0 0 0 -0 -0 -0 -0 -1 -1 -1 -1 -1 -1 -1 -1 -1 -1 -1 -1 -1 -1 -1 -0 0 0 1 1 1 2 2 2 2 3
3 2 2 2 2 1 1 1 0 0 0 -0 -0 -1 -1 -1 -1 -1 -1 -1 -1 -1 -1 -1 -1 -1 -2 -1 -1 -1 -1 -1 -1 -0 -0 -0 0 1 1 1 1 2 2
2 2 2 2 1 1 0 0 -0 -0 -0 -0 -1 -1 -1 -1 -1 -1 -1 -1 -1 -1 -1 -2 -2 -2 -2 -2 -2 -1 -1 -1 -1 -0 -0 -1 -0 0 0 1 1 1 1
2 2 1 1 1 1 0 -0 -1 -1 -1 -1 -1 -1 -2 -2 -2 -2 -2 -2 -2 -2 -2 -2 -2 -2 -2 -2 -2 -1 -1 -1 -1 -1 -1 -1 -1 -0 0 0 0 0 1
1 1 1 0 0 -0 -0 -1 -1 -2 -2 -2 -2 -2 -2 -2 -2 -2 -2 -2 -2 -2 -2 -2 -2 -2 -2 -1 -1 -1 -1 -1 -1 -1 -1 -1 -1 -1 -1 -0 -0 0 0
Wind_Speed
2 2 3 4 4 5 4 4 4 4 4 5 5 5 4 5 4 5 6 8 10 11 13 14 14 15 15 15 15 15 15 15 16 16 16 16 16 16 16 16 17 18 17
2 2 2 3 4 5 5 4 4 4 4 4 4 5 5 5 5 5 6 8 10 11 13 14 15 15 16 16 16 16 16 16 16 16 17 16 16 17 17 16 16 17 18
2 2 1 2 3 5 5 5 5 4 4 5 5 5 5 5 5 6 6 6 7 10 12 14 15 16 16 16 17 16 16 16 17 17 17 17 17 17 18 18 17 17 17
2 2 1 1 3 4 4 3 3 4 4 5 5 5 5 4 6 6 6 6 6 7 10 13 15 16 17 18 18 17 17 18 18 18 18 18 18 19 19 19 19 18 18
1 2 1 1 3 3 3 4 3 3 4 5 6 5 5 5 6 6 5 5 6 7 8 11 14 16 17 18 19 19 19 19 19 18 18 18 18 19 20 20 20 20 19
1 1 1 2 2 2 2 3 3 4 4 5 7 7 6 6 5 5 6 5 6 8 8 9 10 11 16 17 18 19 19 19 19 19 19 19 19 19 19 21 22 21 21
1 1 1 1 1 2 3 3 3 4 4 4 5 6 6 5 6 5 4 5 6 7 8 9 9 9 10 15 18 19 20 21 21 21 20 20 20 21 20 20 20 20 21
1 1 1 1 1 2 3 3 3 3 4 4 3 5 5 5 3 5 4 5 6 6 6 9 9 9 9 9 13 19 20 21 22 22 22 21 20 20 20 20 20 21 21
1 0 1 1 2 2 2 3 3 3 4 4 2 2 3 5 7 4 5 5 5 5 6 6 8 9 11 10 11 14 19 22 23 23 22 21 21 21 20 20 21 21 21
2 1 1 1 2 2 2 3 3 3 4 4 4 3 4 5 5 7 5 5 7 7 7 8 8 8 10 11 13 16 19 21 22 22 22 22 22 22 22 21 21 21 22
2 2 2 2 2 2 3 4 4 4 3 4 4 4 5 5 6 7 11 8 7 6 7 7 7 8 11 11 11 15 18 20 21 22 23 23 23 23 22 22 21 21 21
2 2 2 2 3 3 3 4 4 5 5 5 5 4 5 5 5 6 9 11 10 8 8 7 7 8 9 11 14 18 19 20 21 22 22 22 23 23 22 21 21 21 21
2 2 2 2 3 3 4 4 5 5 5 5 6 5 5 6 6 7 9 11 12 9 8 7 6 8 10 10 13 18 19 20 21 21 22 22 22 22 22 22 22 21 21
3 3 3 3 4 5 5 5 4 5 5 6 8 7 6 7 6 7 8 9 12 11 8 8 6 6 8 10 14 19 15 20 21 21 21 21 22 22 22 22 21 21 20
3 3 3 4 5 5 5 5 5 6 6 6 7 8 7 7 6 6 7 7 9 13 13 9 6 7 9 10 15 14 13 18 21 22 21 21 21 22 22 21 20 20 20
3 3 4 5 5 5 5 5 5 6 6 7 6 8 8 7 6 6 7 7 8 10 13 10 9 9 10 13 18 14 14 21 21 22 22 21 21 21 21 20 19 19 19
3 4 4 5 5 6 5 5 6 7 8 8 8 9 10 9 7 6 6 7 8 8 13 13 10 9 10 12 13 12 13 12 13 19 22 22 22 21 20 19 18 18 17
4 4 5 5 6 6 6 6 7 8 8 9 9 9 10 9 9 7 7 8 8 8 10 15 12 10 11 11 11 11 11 12 11 17 20 21 20 19 18 18 16 15 15
4 4 4 5 6 6 7 7 7 7 8 8 9 9 10 9 9 7 8 8 8 9 8 11 13 10 10 9 10 11 10 9 11 13 15 16 16 15 15 14 14 14 13
4 4 5 5 6 6 7 6 7 7 8 8 9 9 9 9 9 9 8 8 8 8 8 10 11 10 10 9 8 9 9 8 9 10 11 11 10 11 11 10 11 10 10
4 5 5 6 6 6 6 7 7 8 8 9 9 9 9 11 13 11 10 8 8 8 9 9 10 10 10 9 8 8 10 9 9 7 6 6 5 4 5 7 6 6 5
4 5 5 5 6 6 10 12 10 8 8 9 10 9 10 10 13 16 17 16 14 11 10 10 10 10 11 10 9 9 9 9 8 5 4 6 4 3 3 2 1 2 2
4 5 5 5 6 7 11 13 13 9 8 8 9 9 10 10 13 10 12 15 14 17 17 12 11 11 11 10 9 10 9 9 9 7 5 5 3 3 3 3 1 1 1
4 4 5 5 6 8 12 13 13 8 7 8 9 9 9 9 10 10 9 9 9 10 12 10 9 10 10 10 10 10 9 8 8 6 4 4 4 3 4 3 3 2 2
4 4 5 5 6 7 11 12 12 6 7 8 9 9 9 9 13 15 10 10 10 10 12 14 14 14 15 15 12 8 7 6 6 5 3 2 3 3 3 3 3 3 2
4 5 5 5 5 6 10 12 12 5 7 8 8 8 11 11 13 14 9 8 10 10 9 10 10 11 10 10 12 8 6 6 5 4 3 2 3 2 2 2 2 2 2
Wind_Direction
30 20 15 8 1 355 353 345 341 337 334 332 328 322 312 305 299 286 287 282 280 282 283 283 285 285 283 279 277 273 269 267 264 262 258 253 252 250 249 246 245 244 245
39 26 14 7 4 352 343 338 332 329 321 318 309 312 313 307 300 286 279 282 280 280 283 284 285 287 286 282 280 276 273 269 266 264 261 258 254 251 250 248 248 247 245
37 29 8 355 356 341 338 338 334 333 322 321 313 311 312 309 303 297 291 286 282 279 280 283 285 287 286 284 281 279 277 275 270 267 264 261 258 254 251 250 249 248 248
29 26 14 341 344 344 345 330 333 333 327 322 313 306 302 300 299 297 297 296 291 284 280 282 285 287 287 284 282 281 279 276 274 271 266 264 261 256 253 251 249 249 249
16 32 11 345 356 355 338 327 340 331 323 318 309 304 298 293 290 293 287 290 292 291 286 284 283 286 287 286 284 282 281 279 277 274 271 268 264 261 256 253 251 249 249
13 20 10 359 357 332 326 320 321 323 314 308 309 305 294 286 283 280 281 291 296 291 292 288 282 281 284 286 287 286 284 283 281 278 275 271 268 266 263 257 252 250 249
333 7 339 326 327 309 300 307 313 317 319 318 316 311 297 278 271 276 287 291 289 290 292 290 283 280 282 281 283 285 285 285 283 281 278 274 271 268 266 264 256 251 248
265 313 304 287 293 301 311 315 318 313 317 335 323 322 320 316 303 295 284 280 288 294 292 292 287 282 281 280 279 281 282 283 283 283 280 278 275 271 269 265 262 254 250
229 233 263 282 289 286 289 299 303 303 304 310 312 302 310 303 314 285 282 288 292 295 291 294 294 291 286 282 280 280 280 282 283 282 280 279 277 273 271 266 264 260 254
198 219 250 264 278 280 282 287 295 289 287 293 297 268 258 275 297 306 300 295 295 294 292 297 294 293 293 288 284 282 283 283 282 282 282 281 279 277 273 270 266 264 257
201 214 233 245 270 270 270 278 283 280 273 273 279 282 280 277 265 278 294 300 296 284 286 286 286 288 290 289 288 284 285 285 283 283 283 282 281 279 277 273 271 266 263
235 232 242 249 262 265 267 268 269 271 269 271 274 274 275 274 277 276 284 294 296 291 287 281 282 285 287 290 290 291 290 287 285 286 286 284 283 282 278 276 274 273 266
253 248 263 262 264 265 267 268 268 268 267 269 268 268 267 265 268 272 280 288 291 292 287 281 277 282 290 291 289 290 291 289 285 284 285 284 284 282 280 278 274 274 271
247 248 252 258 267 268 274 273 272 267 269 264 268 268 270 268 264 266 271 284 292 293 288 281 283 281 293 292 289 291 290 289 286 284 283 282 281 279 279 277 273 272 271
266 263 265 266 267 270 271 272 270 270 268 264 264 265 267 268 264 264 264 264 276 291 295 292 292 288 294 290 290 291 287 291 290 284 281 281 279 276 275 273 270 268 269
272 271 271 274 276 274 274 276 274 270 273 273 270 271 271 272 270 265 264 264 262 271 284 290 292 295 297 296 294 292 289 291 289 287 283 281 280 276 272 268 267 268 267
266 266 270 273 275 277 279 278 275 277 277 278 277 275 274 275 276 273 270 269 267 268 279 289 290 295 292 294 297 294 289 286 287 287 284 281 279 274 270 266 264 264 264
270 272 275 275 278 282 281 277 279 280 277 279 280 280 280 281 278 277 276 273 271 269 276 288 294 297 292 294 296 297 299 298 293 291 287 283 280 276 268 262 260 259 259
280 283 284 281 281 283 281 278 281 282 281 282 281 281 282 283 281 280 278 277 277 279 277 283 290 295 295 298 302 300 299 300 301 299 292 287 285 281 272 264 259 255 252
286 285 287 285 285 287 286 286 289 289 288 286 285 282 282 281 281 283 282 280 280 281 280 282 287 292 294 296 298 302 306 308 310 310 306 300 294 289 283 277 266 254 240
296 292 292 292 292 294 290 294 292 291 289 289 287 284 282 283 284 286 286 283 282 283 284 284 285 291 295 302 303 302 304 308 309 306 312 317 314 302 294 286 272 240 222
304 302 297 296 296 298 300 305 308 300 295 291 291 291 289 287 290 291 290 289 286 284 285 283 285 288 293 297 302 303 304 306 303 308 316 321 328 328 321 301 266 204 205
311 307 301 299 296 296 305 309 310 310 302 297 296 295 294 293 295 292 294 297 294 289 284 281 282 286 290 295 297 298 297 300 297 299 307 317 339 340 337 336 2 101 119
307 305 306 307 306 306 314 315 315 314 306 299 297 294 292 294 296 298 298 298 293 293 290 288 282 284 288 289 285 285 287 293 294 297 294 303 331 342 345 9 33 57 65
310 307 305 305 303 307 314 318 319 314 308 305 301 298 297 294 298 305 304 300 300 299 299 297 296 296 296 295 293 293 292 295 299 305 309 290 308 342 360 5 22 37 37
308 312 311 309 305 306 313 319 322 317 314 312 309 304 301 302 305 308 303 299 301 304 306 308 307 306 302 301 299 287 282 277 282 295 298 290 295 312 346 358 8 10 19
Height
1507 1506 1506 1505 1505 1504 1504 1503 1502 1501 1501 1500 1499 1498 1497 1497 1496 1495 1494 1494 1493 1493 1492 1491 1491 1490 1490 1489 1489 1488 1488 1488 1488 1488 1488 1488 1489 1489 1490 1490 1491 1491 1492
1505 1504 1504 1504 1503 1502 1502 1501 1500 1499 1498 1497 1496 1495 1494 1493 1492 1491 1490 1489 1489 1488 1487 1487 1486 1485 1485 1484 1484 1483 1483 1482 1482 1482 1482 1482 1482 1483 1484 1484 1485 1485 1486
1503 1503 1502 1502 1501 1500 1499 1498 1497 1496 1495 1494 1493 1492 1491 1489 1488 1487 1486 1485 1484 1483 1483 1482 1481 1480 1479 1479 1478 1477 1477 1476 1476 1476 1476 1476 1476 1476 1477 1478 1478 1479 1479
1502 1501 1500 1500 1499 1498 1497 1496 1495 1493 1492 1491 1489 1488 1487 1485 1484 1483 1482 1481 1480 1479 1478 1477 1476 1475 1474 1473 1472 1471 1471 1470 1470 1469 1469 1469 1470 1470 1470 1471 1471 1472 1472
1500 1499 1499 1498 1497 1496 1495 1494 1492 1491 1489 1488 1486 1484 1483 1481 1480 1478 1477 1476 1475 1474 1473 1471 1470 1469 1468 1467 1466 1465 1464 1464 1463 1463 1463 1463 1463 1463 1462 1463 1463 1464 1465
1498 1497 1497 1496 1495 1494 1493 1491 1490 1489 1487 1485 1482 1480 1478 1477 1475 1474 1473 1472 1470 1469 1468 1466 1465 1464 1463 1461 1460 1459 1458 1458 1457 1456 1456 1456 1456 1456 1456 1456 1456 1456 1457
1496 1495 1494 1494 1493 1491 1490 1489 1488 1486 1484 1482 1479 1475 1473 1472 1471 1470 1469 1467 1465 1464 1462 1461 1460 1458 1457 1455 1454 1453 1452 1451 1450 1450 1449 1448 1448 1448 1448 1448 1448 1448 1449
1493 1492 1492 1491 1490 1489 1488 1486 1485 1483 1481 1481 1478 1474 1470 1467 1466 1466 1464 1462 1461 1459 1458 1456 1454 1453 1451 1449 1448 1447 1445 1444 1444 1443 1442 1441 1441 1440 1440 1440 1440 1440 1440
1490 1490 1489 1488 1487 1486 1485 1484 1483 1481 1479 1478 1478 1477 1473 1467 1462 1459 1459 1458 1456 1455 1453 1451 1449 1447 1445 1444 1442 1440 1439 1437 1436 1435 1435 1434 1433 1433 1432 1432 1432 1432 1433
1487 1487 1486 1485 1485 1483 1482 1481 1480 1478 1477 1475 1474 1474 1473 1470 1465 1457 1454 1453 1452 1450 1448 1446 1444 1442 1440 1437 1435 1433 1432 1430 1428 1428 1427 1426 1425 1425 1424 1424 1424 1424 1425
1484 1484 1483 1482 1481 1480 1479 1478 1477 1475 1474 1472 1470 1469 1468 1466 1464 1460 1451 1447 1445 1444 1443 1441 1438 1436 1434 1431 1428 1426 1424 1422 1421 1420 1419 1418 1417 1417 1416 1416 1416 1416 1417
1480 1480 1480 1479 1478 1477 1476 1474 1473 1471 1470 1468 1467 1465 1464 1462 1459 1457 1451 1445 1441 1438 1437 1435 1433 1430 1428 1425 1423 1420 1418 1416 1414 1413 1412 1411 1410 1409 1408 1408 1408 1408 1409
1476 1476 1476 1475 1474 1473 1472 1471 1469 1468 1466 1464 1462 1461 1459 1457 1455 1453 1448 1442 1437 1432 1430 1428 1427 1425 1423 1420 1417 1414 1411 1409 1406 1405 1404 1403 1402 1401 1400 1400 1400 1399 1401
1473 1473 1472 1471 1470 1469 1468 1467 1465 1463 1461 1459 1458 1456 1453 1451 1450 1447 1445 1440 1433 1427 1423 1422 1421 1419 1417 1414 1410 1407 1404 1402 1399 1397 1396 1395 1394 1393 1392 1392 1391 1391 1392
1469 1469 1468 1467 1466 1465 1464 1462 1460 1458 1456 1454 1452 1450 1448 1446 1444 1442 1440 1437 1434 1425 1417 1415 1414 1412 1410 1407 1404 1400 1397 1394 1392 1389 1388 1386 1385 1384 1383 1383 1384 1384 1384
1466 1465 1464 1463 1462 1461 1459 1457 1455 1453 1451 1449 1447 1444 1442 1440 1437 1435 1433 1431 1429 1425 1415 1409 1408 1406 1404 1401 1398 1394 1390 1387 1384 1382 1380 1378 1377 1376 1375 1375 1375 1376 1376
1462 1461 1460 1459 1457 1456 1454 1452 1450 1448 1445 1443 1441 1439 1436 1434 1431 1429 1427 1425 1423 1420 1413 1405 1404 1401 1398 1394 1390 1387 1383 1380 1376 1374 1372 1370 1369 1368 1367 1367 1367 1368 1369
1458 1457 1456 1454 1453 1451 1449 1447 1445 1442 1440 1437 1435 1433 1430 1428 1425 1423 1421 1418 1416 1414 1410 1402 1397 1395 1392 1389 1384 1380 1377 1374 1370 1366 1364 1362 1360 1359 1359 1359 1360 1361 1362
1454 1453 1451 1450 1448 1446 1444 1442 1439 1437 1435 1432 1429 1427 1424 1422 1419 1417 1415 1412 1410 1408 1405 1399 1393 1389 1386 1383 1379 1375 1371 1367 1364 1359 1356 1354 1353 1352 1352 1352 1352 1353 1355
1449 1448 1447 1445 1443 1441 1439 1437 1434 1432 1429 1426 1424 1421 1419 1417 1414 1412 1409 1407 1404 1401 1398 1394 1389 1384 1381 1378 1375 1370 1365 1362 1358 1354 1350 1347 1346 1346 1346 1346 1346 1347 1348
1446 1444 1443 1441 1439 1437 1434 1432 1429 1426 1423 1420 1418 1416 1413 1411 1409 1407 1404 1401 1399 1396 1392 1388 1384 1379 1376 1373 1370 1366 1362 1357 1353 1350 1346 1343 1341 1341 1341 1341 1341 1342 1343
1442 1440 1438 1437 1434 1432 1430 1428 1425 1421 1418 1415 1412 1410 1408 1405 1403 1400 1398 1396 1394 1391 1387 1383 1379 1375 1372 1369 1366 1363 1359 1354 1349 1348 1344 1340 1339 1337 1338 1337 1338 1339 1340
1438 1436 1434 1432 1430 1428 1426 1423 1420 1417 1413 1410 1408 1405 1402 1400 1398 1395 1392 1390 1387 1385 1383 1380 1375 1371 1368 1365 1362 1358 1355 1352 1348 1346 1343 1339 1337 1336 1336 1336 1336 1336 1338
1434 1432 1430 1428 1426 1424 1422 1419 1416 1412 1409 1406 1403 1400 1398 1395 1392 1390 1386 1383 1380 1378 1376 1374 1370 1367 1364 1361 1358 1356 1352 1349 1346 1344 1343 1339 1337 1336 1335 1335 1335 1336 1337
1431 1429 1427 1424 1422 1420 1417 1415 1411 1408 1404 1401 1399 1396 1393 1390 1388 1386 1382 1378 1375 1372 1370 1368 1366 1362 1359 1357 1355 1352 1349 1347 1343 1341 1341 1339 1337 1335 1334 1334 1335 1336 1336
1427 1425 1423 1421 1418 1416 1414 1411 1408 1404 1401 1397 1394 1392 1389 1387 1384 1381 1378 1374 1370 1367 1365 1362 1360 1357 1354 1352 1350 1348 1347 1345 1342 1341 1340 1339 1337 1336 1334 1334 1335 1335 1335